Location: Ay?beleni
(36.6500°N, 30.3000°E)
Time: 03:14:58
(UTC+00:00)

Cosmos 1535 Rocket - Pass Details

Date: 16 October 2021
Orbit: 948 x 1004 km, 83.0° (Epoch: 08 December)

Event Time Altitude Azimuth Distance (km) Brightness Sun altitude
Rises 17:05:54 0° 187° (S) 3,631 7.5 -21.8°
Reaches altitude 10° 17:08:22 10° 187° (S) 2,696 6.8 -22.3°
Maximum altitude 17:14:33 84° 275° (W) 987 4.5 -23.5°
Drops below altitude 10° 17:20:53 10° 5° (N) 2,752 6.9 -24.8°
Sets 17:23:26 0° 6° (N) 3,711 7.6 -25.3°
